Asheville, NC

5:32 AM EDT on July 26, 2017 (GMT -0400)
Asheville Regional

Weather History for KAVL - January, 2014

Change the Weather History Date:

Saturday, January 11, 2014

  Actual Average Record
Temperature  
Mean Temperature 49 °F 37 °F  
Max Temperature 56 °F 47 °F 71 °F (1890)
Min Temperature 42 °F 27 °F -6 °F (1982)
Degree Days  
Heating Degree Days 16 28  
Month to date heating degree days 366 308  
Since 1 July heating degree days 1946 1969  
Cooling Degree Days 0 0  
Month to date cooling degree days 0 0  
Year to date cooling degree days 0 0  
Moisture  
Dew Point 44 °F    
Average Humidity 71    
Maximum Humidity 100    
Minimum Humidity 41    
Precipitation  
Precipitation 1.38 in 0.12 in 2.16 in (1908)
Month to date precipitation 2.07 1.24  
Year to date precipitation 2.07 1.24  
Snow  
Snow 0.00 in 0.10 in 7.00 in (1918)
Month to date snowfall 0.2 1.3  
Since 1 July snowfall 0.4 2.3  
Snow Depth 0.00 in    
Sea Level Pressure  
Sea Level Pressure 29.84 in    
Wind  
Wind Speed 5 mph (South)    
Max Wind Speed 23 mph    
Max Gust Speed 33 mph    
Visibility 6 miles    
Events Rain    
T = Trace of Precipitation, MM = Missing Value Source: NWS Daily Summary

Daily Weather History Graph

Daily Weather History Graph

Search for Another Location

Airport or City:

Trip Planner

Search our weather history database for the weather conditions in past years. The results will help you decide how hot, cold, wet, or windy it might be!

Date:

Astronomy

Jan. 11, 2014 Rise Set
Actual Time 7:39 AM EST 5:37 PM EST
Civil Twilight 7:11 AM EST 6:04 PM EST
Nautical Twilight 6:40 AM EST 6:36 PM EST
Astronomical Twilight 6:09 AM EST 7:07 PM EST
Moon 2:18 PM EST (1/11) 3:45 AM EST (1/11)
Length of Visible Light 10h 53m
Length of Day
9h 57m
Waxing Gibbous, 83% of the Moon is Illuminated
Jan 11
Waxing Gibbous
Jan 15
Full
Jan 24
Last Quarter
Jan 30
New
Feb 6
First Quarter

Hourly Weather History & Observations

Time (EST) Temp. Windchill Dew Point Humidity Pressure Visibility Wind Dir Wind Speed Gust Speed Precip Events Conditions
12:20 AM 44.6 °F 42.2 °F 44.6 °F 100% 30.03 in 3.0 mi ESE 4.6 mph - 0.06 in Rain Light Rain
12:33 AM 44.6 °F 43.1 °F 44.6 °F 100% 30.02 in 9.0 mi ESE 3.5 mph - 0.06 in Rain Light Rain
12:47 AM 44.6 °F - 44.6 °F 100% 30.01 in 5.0 mi Calm Calm - 0.06 in   Overcast
12:54 AM 45.0 °F 43.5 °F 44.1 °F 97% 30.01 in 10.0 mi SSE 3.5 mph - 0.06 in Rain Light Rain
1:04 AM 44.6 °F 43.1 °F 44.6 °F 100% 30.01 in 9.0 mi SSE 3.5 mph - 0.01 in Rain Rain
1:43 AM 44.6 °F 43.1 °F 44.6 °F 100% 30.00 in 10.0 mi SSE 3.5 mph - 0.03 in Rain Light Rain
1:51 AM 44.6 °F 42.2 °F 44.6 °F 100% 29.99 in 7.0 mi SSE 4.6 mph - 0.03 in Rain Light Rain
1:54 AM 45.0 °F 43.5 °F 44.1 °F 97% 29.98 in 6.0 mi SE 3.5 mph - 0.03 in Rain Light Rain
2:18 AM 44.6 °F 43.1 °F 44.6 °F 100% 29.98 in 2.0 mi SSW 3.5 mph - 0.01 in Rain Light Rain
2:21 AM 44.6 °F 43.1 °F 44.6 °F 100% 29.97 in 1.5 mi South 3.5 mph - 0.01 in Rain Light Rain
2:33 AM 44.6 °F - 44.6 °F 100% 29.96 in 3.0 mi Calm Calm - 0.02 in Rain Light Rain
2:40 AM 44.6 °F - 44.6 °F 100% 29.96 in 6.0 mi Calm Calm - 0.02 in Rain Light Rain
2:54 AM 45.0 °F - 44.1 °F 97% 29.95 in 1.8 mi Calm Calm - 0.03 in Rain Light Rain
3:03 AM 44.6 °F - 44.6 °F 100% 29.95 in 1.0 mi Calm Calm - 0.00 in Rain Light Rain
3:24 AM 44.6 °F 43.1 °F 44.6 °F 100% 29.93 in 2.0 mi SSE 3.5 mph - 0.00 in Rain Light Rain
3:27 AM 44.6 °F 43.1 °F 44.6 °F 100% 29.93 in 3.0 mi SSE 3.5 mph - 0.00 in Rain Light Rain
3:48 AM 44.6 °F 42.2 °F 44.6 °F 100% 29.92 in 1.8 mi SSW 4.6 mph - 0.00 in Rain Light Rain
3:54 AM 44.1 °F 42.5 °F 44.1 °F 100% 29.91 in 1.2 mi South 3.5 mph - 0.00 in Rain Light Rain
4:06 AM 44.6 °F - 44.6 °F 100% 29.92 in 2.0 mi Calm Calm - 0.00 in Rain Light Rain
4:20 AM 44.6 °F 42.2 °F 44.6 °F 100% 29.93 in 1.5 mi South 4.6 mph - 0.04 in Rain Heavy Rain
4:36 AM 44.6 °F 43.1 °F 44.6 °F 100% 29.91 in 3.0 mi SW 3.5 mph - 0.20 in Rain Light Rain
4:52 AM 44.6 °F 43.1 °F 44.6 °F 100% 29.90 in 9.0 mi SSE 3.5 mph - 0.20 in Rain Light Rain
4:54 AM 45.0 °F 43.5 °F 45.0 °F 100% 29.89 in 8.0 mi SSE 3.5 mph - 0.20 in Rain Light Rain
5:11 AM 44.6 °F 43.1 °F 44.6 °F 100% 29.88 in 6.0 mi South 3.5 mph - 0.03 in Rain Light Rain
5:20 AM 44.6 °F 41.4 °F 44.6 °F 100% 29.88 in 5.0 mi SSE 5.8 mph - 0.04 in Rain Heavy Rain
5:54 AM 46.0 °F 43.9 °F 45.0 °F 96% 29.85 in 5.0 mi Variable 4.6 mph - 0.11 in Rain Heavy Rain
6:21 AM 46.4 °F 43.5 °F 46.4 °F 100% 29.82 in 10.0 mi WSW 5.8 mph - 0.11 in Rain Light Rain
6:54 AM 48.0 °F - 46.9 °F 96% 29.80 in 9.0 mi Calm Calm - 0.12 in Rain Light Rain
7:54 AM 48.9 °F - 48.9 °F 100% 29.78 in 3.0 mi ESE 4.6 mph - 0.05 in Rain Light Rain
8:34 AM 50.0 °F - 48.2 °F 94% 29.78 in 2.5 mi East 3.5 mph - 0.02 in Rain Light Rain
8:54 AM 50.0 °F - 50.0 °F 100% 29.75 in 3.0 mi Calm Calm - 0.04 in Rain Light Rain
9:12 AM 50.0 °F - 48.2 °F 94% 29.75 in 1.8 mi Variable 3.5 mph - 0.01 in Rain Rain
9:38 AM 51.8 °F - 50.0 °F 94% 29.75 in 0.8 mi NNW 6.9 mph 19.6 mph 0.09 in Rain Heavy Rain
9:41 AM 51.8 °F - 50.0 °F 94% 29.75 in 2.0 mi Variable 3.5 mph 19.6 mph 0.23 in Rain Heavy Rain
9:54 AM 51.1 °F - 51.1 °F 100% 29.77 in 2.0 mi Calm Calm - 0.26 in Rain Light Rain
10:01 AM 50.0 °F - 50.0 °F 100% 29.79 in 4.0 mi NNW 15.0 mph - 0.02 in Rain Rain
10:54 AM 51.1 °F - 50.0 °F 96% 29.75 in 2.0 mi SSW 3.5 mph - 0.18 in Rain Rain
11:54 AM 50.0 °F - 50.0 °F 100% 29.73 in 2.0 mi SSE 5.8 mph - 0.21 in Rain Rain
12:00 PM 50.0 °F - 50.0 °F 100% 29.75 in 5.0 mi South 5.8 mph - 0.02 in Rain Rain
12:54 PM 50.0 °F - 50.0 °F 100% 29.68 in 10.0 mi South 4.6 mph - 0.09 in Rain Light Rain
1:54 PM 51.1 °F - 48.9 °F 92% 29.66 in 10.0 mi SW 5.8 mph - 0.00 in   Scattered Clouds
2:54 PM 55.0 °F - 51.1 °F 86% 29.64 in 10.0 mi SSW 11.5 mph 17.3 mph N/A   Clear
3:54 PM 55.9 °F - 48.9 °F 77% 29.61 in 10.0 mi South 9.2 mph - N/A   Clear
4:54 PM 55.0 °F - 44.1 °F 67% 29.61 in 10.0 mi Variable 3.5 mph - N/A   Clear
5:54 PM 50.0 °F - 42.1 °F 74% 29.62 in 10.0 mi SSW 5.8 mph - N/A   Clear
6:54 PM 52.0 °F - 28.9 °F 41% 29.64 in 10.0 mi West 5.8 mph - N/A   Clear
7:54 PM 48.9 °F - 35.1 °F 59% 29.69 in 10.0 mi NW 9.2 mph - 0.00 in   Scattered Clouds
8:54 PM 48.0 °F - 30.9 °F 52% 29.72 in 10.0 mi WNW 9.2 mph - N/A   Scattered Clouds
9:54 PM 45.0 °F 38.2 °F 35.1 °F 68% 29.77 in 10.0 mi NW 15.0 mph 26.5 mph 0.00 in Rain Light Rain
10:54 PM 43.0 °F 38.8 °F 35.1 °F 74% 29.81 in 10.0 mi North 6.9 mph - 0.00 in   Mostly Cloudy
11:54 PM 42.1 °F 39.2 °F 28.0 °F 58% 29.81 in 10.0 mi Variable 4.6 mph - N/A   Clear